Weather History for Wichita Falls, TX

Change the Weather History Date:

Tuesday, September 24, 2013

  Actual Average (KSPS) Record (KSPS)
Temperature  
Mean Temperature 77 °F 72 °F  
Max Temperature 90 °F 85 °F 101 °F (1926)
Min Temperature 64 °F 60 °F 38 °F (1989)
Degree Days  
Heating Degree Days 0 1  
Month to date heating degree days 6  
Since 1 July heating degree days 6  
Cooling Degree Days 12 8  
Month to date cooling degree days 292  
Year to date cooling degree days 2237  
Growing Degree Days 27 (Base 50)    
Moisture  
Dew Point 47 °F    
Average Humidity 41    
Maximum Humidity 71    
Minimum Humidity 14    
Precipitation  
Precipitation 0.00 in 0.10 in 3.10 in (1974)
Month to date precipitation 2.32  
Year to date precipitation 22.05  
Sea Level Pressure  
Sea Level Pressure 29.94 in    
Wind  
Wind Speed 6 mph (NNE)    
Max Wind Speed 14 mph    
Max Gust Speed 18 mph    
Visibility 8 miles    
Events      
T = Trace of Precipitation, MM = Missing Value Source: NWS Daily Summary

Daily Weather History Graph

Daily Weather History Graph

Search for Another Location

Airport:

Trip Planner

Search our weather history database for the weather conditions in past years. The results will help you decide how hot, cold, wet, or windy it might be!

Date:

Astronomy

Sep. 24, 2013 Rise Set
Actual Time 7:23 AM CDT 7:27 PM CDT
Civil Twilight 6:58 AM CDT 7:52 PM CDT
Nautical Twilight 6:29 AM CDT 8:21 PM CDT
Astronomical Twilight 6:00 AM CDT 8:50 PM CDT
Moon 11:00 PM CDT (9/24) 12:25 PM CDT (9/24)
Length of Visible Light 12h 53m
Length of Day
12h 03m
Waning Gibbous, 73% of the Moon is Illuminated
Sep 24
Waning Gibbous
Sep 26
Last Quarter
Oct 4
New
Oct 11
First Quarter
Oct 18
Full

Hourly Weather History & Observations

Time (CDT) Temp. Dew Point Humidity Pressure Visibility Wind Dir Wind Speed Gust Speed Precip Events Conditions
12:15 AM 68.0 °F 54.0 °F 61% 29.86 in 10.0 mi East 6.9 mph - N/A   Clear
12:35 AM 68.7 °F 53.2 °F 58% 29.86 in 10.0 mi East 6.9 mph - N/A   Clear
12:55 AM 68.4 °F 53.1 °F 58% 29.87 in 10.0 mi ESE 6.9 mph - N/A   Clear
1:15 AM 67.6 °F 53.6 °F 61% 29.87 in 10.0 mi East 4.6 mph - N/A   Clear
1:35 AM 65.5 °F 54.3 °F 67% 29.87 in 10.0 mi East 5.8 mph - N/A   Clear
1:55 AM 66.0 °F 53.8 °F 65% 29.88 in 10.0 mi East 5.8 mph - N/A   Clear
2:35 AM 66.7 °F 52.9 °F 61% 29.89 in 10.0 mi ESE 4.6 mph - N/A   Clear
2:55 AM 66.2 °F 53.8 °F 64% 29.89 in 10.0 mi SE 5.8 mph - N/A   Clear
3:15 AM 65.8 °F 54.0 °F 65% 29.90 in 10.0 mi Calm Calm - N/A   Mostly Cloudy
3:35 AM 66.4 °F 53.6 °F 63% 29.90 in 10.0 mi East 3.5 mph - N/A   Mostly Cloudy
3:55 AM 64.9 °F 54.1 °F 68% 29.90 in 10.0 mi NE 5.8 mph - N/A   Clear
4:35 AM 64.6 °F 54.1 °F 69% 29.91 in 10.0 mi NE 3.5 mph - N/A   Clear
4:55 AM 65.1 °F 54.5 °F 68% 29.91 in 10.0 mi NE 3.5 mph - N/A   Mostly Cloudy
5:15 AM 67.1 °F 54.1 °F 63% 29.92 in 10.0 mi NNE 6.9 mph - N/A   Overcast
5:35 AM 66.7 °F 55.4 °F 67% 29.93 in 10.0 mi NNE 8.1 mph - N/A   Overcast
5:55 AM 67.1 °F 55.4 °F 66% 29.94 in 10.0 mi North 8.1 mph - N/A   Mostly Cloudy
6:15 AM 66.7 °F 55.2 °F 66% 29.94 in 10.0 mi NNE 5.8 mph - N/A   Mostly Cloudy
6:35 AM 65.8 °F 54.7 °F 67% 29.95 in 10.0 mi NE 5.8 mph - N/A   Scattered Clouds
6:55 AM 65.3 °F 54.5 °F 68% 29.95 in 10.0 mi NNE 5.8 mph - N/A   Clear
7:15 AM 64.9 °F 54.3 °F 68% 29.96 in 10.0 mi NNE 4.6 mph - N/A   Clear
7:35 AM 64.4 °F 54.5 °F 70% 29.96 in 10.0 mi NNE 3.5 mph - N/A   Clear
7:55 AM 64.4 °F 54.7 °F 71% 29.97 in 10.0 mi NNE 3.5 mph - N/A   Clear
8:15 AM 65.8 °F 55.4 °F 69% 29.97 in 10.0 mi Calm Calm - N/A   Clear
8:35 AM 68.0 °F 55.2 °F 64% 29.98 in 10.0 mi NNE 3.5 mph - N/A   Clear
8:55 AM 69.8 °F 55.2 °F 60% 29.98 in 10.0 mi NNE 6.9 mph - N/A   Clear
9:15 AM 72.5 °F 54.7 °F 53% 29.99 in 10.0 mi NNE 5.8 mph - N/A   Clear
9:35 AM 74.7 °F 54.7 °F 50% 30.00 in 10.0 mi NNE 6.9 mph - N/A   Clear
9:55 AM 75.6 °F 54.7 °F 48% 30.00 in 10.0 mi North 10.4 mph - N/A   Clear
10:15 AM 77.7 °F 52.5 °F 41% 30.00 in 10.0 mi NNE 11.5 mph - N/A   Clear
10:35 AM 79.5 °F 48.0 °F 33% 30.01 in 10.0 mi North 11.5 mph - N/A   Clear
10:55 AM 80.4 °F 47.5 °F 31% 30.01 in 10.0 mi North 10.4 mph 18.4 mph N/A   Clear
11:15 AM 81.1 °F 48.0 °F 31% 30.00 in 4.0 mi NNE 11.5 mph - N/A   Haze
11:35 AM 82.6 °F 46.2 °F 28% 30.00 in 4.0 mi North 11.5 mph - N/A   Haze
11:55 AM 83.8 °F 45.7 °F 26% 30.00 in 4.0 mi NNE 9.2 mph - N/A   Haze
12:15 PM 85.1 °F 45.5 °F 25% 30.00 in 3.0 mi NE 10.4 mph - N/A   Haze
12:55 PM 86.4 °F 37.8 °F 18% 29.99 in 5.0 mi North 10.4 mph - N/A   Haze
1:15 PM 87.1 °F 36.9 °F 17% 29.99 in 7.0 mi NNW 11.5 mph 16.1 mph N/A   Clear
1:35 PM 87.1 °F 39.4 °F 19% 29.98 in 3.0 mi North 12.7 mph - N/A   Haze
1:55 PM 87.8 °F 39.2 °F 18% 29.97 in 7.0 mi NNE 12.7 mph 17.3 mph N/A   Clear
2:15 PM 88.2 °F 36.9 °F 16% 29.96 in 5.0 mi North 11.5 mph 16.1 mph N/A   Haze
2:35 PM 89.4 °F 35.8 °F 15% 29.95 in 5.0 mi NNW 11.5 mph - N/A   Haze
2:55 PM 89.2 °F 36.1 °F 15% 29.95 in 3.0 mi North 8.1 mph - N/A   Haze
3:35 PM 90.5 °F 37.0 °F 15% 29.93 in 5.0 mi North 9.2 mph - N/A   Haze
3:55 PM 90.5 °F 35.1 °F 14% 29.93 in 10.0 mi NNW 10.4 mph - N/A   Clear
4:15 PM 90.3 °F 35.1 °F 14% 29.92 in 10.0 mi NNW 10.4 mph - N/A   Clear
4:35 PM 90.5 °F 35.6 °F 14% 29.92 in 1.5 mi NNW 13.8 mph 17.3 mph N/A   Haze
4:55 PM 90.3 °F 35.6 °F 14% 29.91 in 10.0 mi North 12.7 mph 17.3 mph N/A   Clear
5:15 PM 90.1 °F 35.6 °F 15% 29.91 in 1.8 mi North 10.4 mph - N/A   Haze
5:35 PM 90.1 °F 36.0 °F 15% 29.91 in 7.0 mi NNW 9.2 mph - N/A   Clear
5:55 PM 89.4 °F 36.7 °F 16% 29.91 in 1.2 mi North 10.4 mph - N/A   Haze
6:15 PM 89.4 °F 36.0 °F 15% 29.91 in 10.0 mi NNW 9.2 mph - N/A   Clear
6:35 PM 88.7 °F 36.0 °F 15% 29.91 in 3.0 mi North 11.5 mph - N/A   Haze
6:55 PM 87.4 °F 38.1 °F 17% 29.91 in 1.8 mi North 8.1 mph - N/A   Haze
7:15 PM 84.9 °F 39.9 °F 20% 29.90 in 5.0 mi North 6.9 mph - N/A   Haze
7:35 PM 83.1 °F 40.6 °F 22% 29.90 in 7.0 mi North 6.9 mph - N/A   Clear
7:55 PM 81.5 °F 41.5 °F 24% 29.91 in 7.0 mi North 4.6 mph - N/A   Clear
8:15 PM 79.5 °F 43.3 °F 28% 29.91 in 4.0 mi North 3.5 mph - N/A   Haze
8:35 PM 78.6 °F 43.7 °F 29% 29.91 in 7.0 mi Calm Calm - N/A   Clear
8:55 PM 78.8 °F 43.0 °F 28% 29.92 in 10.0 mi Calm Calm - N/A   Clear
9:15 PM 77.2 °F 44.4 °F 31% 29.92 in 10.0 mi Calm Calm - N/A   Clear
9:35 PM 76.1 °F 45.9 °F 34% 29.92 in 10.0 mi Calm Calm - N/A   Clear
9:55 PM 75.2 °F 46.4 °F 36% 29.92 in 10.0 mi Calm Calm - N/A   Clear
10:15 PM 73.9 °F 47.5 °F 39% 29.93 in 10.0 mi Calm Calm - N/A   Clear
10:35 PM 72.7 °F 48.2 °F 42% 29.93 in 10.0 mi Calm Calm - N/A   Clear
10:55 PM 72.0 °F 49.3 °F 45% 29.93 in 10.0 mi Calm Calm - N/A   Clear
11:15 PM 70.7 °F 48.7 °F 46% 29.92 in 10.0 mi Calm Calm - N/A   Clear
11:35 PM 69.8 °F 50.5 °F 50% 29.92 in 10.0 mi Calm Calm - N/A   Clear
11:55 PM 69.8 °F 51.4 °F 52% 29.92 in 10.0 mi Calm Calm - N/A   Clear